When you browse on this site, cookies collect data to enhance your experience and personalize the content and advertising you see.
Visit our Privacy Policy to learn more. By continuing to use the site, you agree to this use of cookies and data.
  • en Suisse
  • Liste des pays
  • À 7 jours
  • Température de l'eau
  • Carte météo
  • Widgets météo
  • user-avatar
    Se connecter

    Météo par heure à Kipungo

    Ce jour, 3 Juin, Mercredi

    Heure Température Précipitation Vent Pression Humidité
    00:00 +18°C° 0 mm 1 m/s 654 mmHg 42%
    01:00 +18°C° 0 mm 1 m/s 654 mmHg 43%
    02:00 +16°C° 0 mm 1 m/s 654 mmHg 45%
    03:00 +15°C° 0 mm 0 m/s 654 mmHg 46%
    04:00 +14°C° 0 mm 0 m/s 653 mmHg 48%
    05:00 +14°C° 0 mm 0 m/s 654 mmHg 48%
    06:00 +15°C° 0 mm 1 m/s 654 mmHg 48%
    07:00 +16°C° 0 mm 1 m/s 654 mmHg 49%
    08:00 +20°C° 0 mm 1 m/s 655 mmHg 42%
    09:00 +23°C° 0 mm 2 m/s 656 mmHg 36%
    10:00 +26°C° 0 mm 3 m/s 657 mmHg 29%
    11:00 +27°C° 0 mm 3 m/s 656 mmHg 26%
    12:00 +29°C° 0 mm 2 m/s 656 mmHg 24%
    13:00 +31°C° 0 mm 2 m/s 656 mmHg 21%
    14:00 +30°C° 0 mm 1 m/s 655 mmHg 21%
    15:00 +30°C° 0 mm 1 m/s 655 mmHg 21%
    16:00 +30°C° 0 mm 1 m/s 654 mmHg 21%
    17:00 +27°C° 0 mm 1 m/s 654 mmHg 24%
    18:00 +25°C° 0 mm 1 m/s 654 mmHg 28%
    19:00 +23°C° 0 mm 1 m/s 654 mmHg 31%
    20:00 +22°C° 0 mm 1 m/s 654 mmHg 33%
    21:00 +21°C° 0 mm 1 m/s 654 mmHg 36%
    22:00 +20°C° 0 mm 1 m/s 654 mmHg 38%
    23:00 +19°C° 0 mm 1 m/s 654 mmHg 42%

    Demain, 4 Juin, Jeudi

    Heure Température Précipitation Vent Pression Humidité
    00:00 +18°C° 0 mm 1 m/s 654 mmHg 46%
    01:00 +16°C° 0 mm 1 m/s 654 mmHg 50%
    02:00 +15°C° 0 mm 1 m/s 653 mmHg 54%
    03:00 +14°C° 0 mm 1 m/s 653 mmHg 58%
    04:00 +13°C° 0 mm 0 m/s 652 mmHg 62%
    05:00 +13°C° 0 mm 0 m/s 653 mmHg 62%
    06:00 +13°C° 0 mm 0 m/s 653 mmHg 61%
    07:00 +13°C° 0 mm 0 m/s 654 mmHg 61%
    08:00 +18°C° 0 mm 0 m/s 655 mmHg 49%
    09:00 +24°C° 0 mm 1 m/s 656 mmHg 38%
    10:00 +29°C° 0 mm 1 m/s 658 mmHg 26%
    11:00 +30°C° 0 mm 1 m/s 657 mmHg 24%
    12:00 +31°C° 0 mm 1 m/s 657 mmHg 21%
    13:00 +32°C° 0 mm 1 m/s 656 mmHg 18%
    14:00 +32°C° 0 mm 1 m/s 656 mmHg 19%
    15:00 +31°C° 0 mm 1 m/s 655 mmHg 19%
    16:00 +30°C° 0 mm 1 m/s 655 mmHg 19%
    17:00 +27°C° 0 mm 1 m/s 654 mmHg 24%
    18:00 +24°C° 0 mm 1 m/s 654 mmHg 29%
    19:00 +18°C° 0 mm 0 m/s 654 mmHg 35%
    20:00 +20°C° 0 mm 1 m/s 654 mmHg 37%
    21:00 +19°C° 0 mm 1 m/s 654 mmHg 40%
    22:00 +18°C° 0 mm 1 m/s 654 mmHg 43%
    23:00 +16°C° 0 mm 1 m/s 654 mmHg 46%

    Après-demain, 5 Juin, Vendredi

    Heure Température Précipitation Vent Pression Humidité
    00:00 +16°C° 0 mm 1 m/s 654 mmHg 50%
    01:00 +15°C° 0 mm 1 m/s 654 mmHg 54%
    02:00 +14°C° 0 mm 1 m/s 654 mmHg 59%
    03:00 +14°C° 0 mm 1 m/s 654 mmHg 63%
    04:00 +12°C° 0 mm 0 m/s 653 mmHg 67%
    05:00 +12°C° 0 mm 0 m/s 654 mmHg 68%
    06:00 +12°C° 0 mm 0 m/s 654 mmHg 68%
    07:00 +12°C° 0 mm 0 m/s 654 mmHg 68%
    08:00 +16°C° 0 mm 0 m/s 655 mmHg 55%
    09:00 +22°C° 0 mm 1 m/s 656 mmHg 43%
    10:00 +26°C° 0 mm 2 m/s 657 mmHg 30%
    11:00 +28°C° 0 mm 2 m/s 657 mmHg 26%
    12:00 +30°C° 0 mm 2 m/s 657 mmHg 23%
    13:00 +31°C° 0 mm 2 m/s 657 mmHg 19%
    14:00 +31°C° 0 mm 2 m/s 656 mmHg 19%
    15:00 +31°C° 0 mm 1 m/s 656 mmHg 18%
    16:00 +31°C° 0 mm 1 m/s 655 mmHg 18%
    17:00 +28°C° 0 mm 1 m/s 655 mmHg 24%
    18:00 +24°C° 0 mm 1 m/s 655 mmHg 29%
    19:00 +19°C° 0 mm 0 m/s 654 mmHg 34%
    20:00 +20°C° 0 mm 1 m/s 654 mmHg 35%
    21:00 +19°C° 0 mm 1 m/s 655 mmHg 37%
    22:00 +18°C° 0 mm 2 m/s 655 mmHg 38%
    23:00 +18°C° 0 mm 1 m/s 655 mmHg 41%

    6 Juin, Samedi

    Heure Température Précipitation Vent Pression Humidité
    00:00 +16°C° 0 mm 1 m/s 655 mmHg 44%
    01:00 +15°C° 0 mm 1 m/s 654 mmHg 47%
    02:00 +14°C° 0 mm 1 m/s 654 mmHg 50%
    03:00 +12°C° 0 mm 0 m/s 654 mmHg 53%
    04:00 +12°C° 0 mm 0 m/s 654 mmHg 56%
    05:00 +12°C° 0 mm 0 m/s 654 mmHg 56%
    06:00 +12°C° 0 mm 0 m/s 654 mmHg 57%
    07:00 +12°C° 0 mm 0 m/s 655 mmHg 57%
    08:00 +18°C° 0 mm 1 m/s 656 mmHg 47%
    09:00 +21°C° 0 mm 2 m/s 657 mmHg 37%
    10:00 +26°C° 0 mm 3 m/s 657 mmHg 26%
    11:00 +28°C° 0 mm 3 m/s 657 mmHg 24%
    12:00 +30°C° 0 mm 3 m/s 657 mmHg 22%
    13:00 +31°C° 0 mm 3 m/s 657 mmHg 19%
    14:00 +31°C° 0 mm 2 m/s 656 mmHg 19%
    15:00 +31°C° 0 mm 2 m/s 656 mmHg 18%
    16:00 +31°C° 0 mm 1 m/s 655 mmHg 18%
    17:00 +28°C° 0 mm 1 m/s 655 mmHg 22%
    18:00 +25°C° 0 mm 1 m/s 655 mmHg 27%
    19:00 +22°C° 0 mm 1 m/s 655 mmHg 31%
    20:00 +21°C° 0 mm 1 m/s 655 mmHg 34%
    21:00 +20°C° 0 mm 1 m/s 655 mmHg 36%
    22:00 +18°C° 0 mm 1 m/s 655 mmHg 38%
    23:00 +16°C° 0 mm 1 m/s 654 mmHg 42%

    7 Juin, Dimanche

    Heure Température Précipitation Vent Pression Humidité
    00:00 +15°C° 0 mm 1 m/s 654 mmHg 45%
    01:00 +14°C° 0 mm 1 m/s 654 mmHg 48%
    02:00 +13°C° 0 mm 1 m/s 654 mmHg 50%
    03:00 +12°C° 0 mm 0 m/s 653 mmHg 51%
    04:00 +11°C° 0 mm 0 m/s 653 mmHg 53%
    05:00 +11°C° 0 mm 0 m/s 654 mmHg 53%
    06:00 +13°C° 0 mm 1 m/s 654 mmHg 53%
    07:00 +13°C° 0 mm 1 m/s 654 mmHg 53%
    08:00 +17°C° 0 mm 2 m/s 655 mmHg 44%
    09:00 +20°C° 0 mm 2 m/s 656 mmHg 35%
    10:00 +25°C° 0 mm 3 m/s 657 mmHg 25%
    11:00 +27°C° 0 mm 3 m/s 657 mmHg 23%
    12:00 +29°C° 0 mm 3 m/s 656 mmHg 21%
    13:00 +30°C° 0 mm 2 m/s 656 mmHg 18%
    14:00 +30°C° 0 mm 2 m/s 656 mmHg 18%
    15:00 +30°C° 0 mm 2 m/s 656 mmHg 18%
    16:00 +30°C° 0 mm 1 m/s 655 mmHg 17%
    17:00 +27°C° 0 mm 1 m/s 655 mmHg 22%
    18:00 +24°C° 0 mm 1 m/s 654 mmHg 28%
    19:00 +20°C° 0 mm 1 m/s 654 mmHg 33%
    20:00 +19°C° 0 mm 1 m/s 654 mmHg 35%
    21:00 +18°C° 0 mm 1 m/s 654 mmHg 37%
    22:00 +16°C° 0 mm 1 m/s 654 mmHg 38%
    23:00 +15°C° 0 mm 1 m/s 654 mmHg 41%

    8 Juin, Lundi

    Heure Température Précipitation Vent Pression Humidité
    00:00 +14°C° 0 mm 1 m/s 654 mmHg 43%
    01:00 +13°C° 0 mm 1 m/s 653 mmHg 45%
    02:00 +12°C° 0 mm 0 m/s 653 mmHg 47%
    03:00 +11°C° 0 mm 0 m/s 653 mmHg 49%
    04:00 +10°C° 0 mm 0 m/s 652 mmHg 51%
    05:00 +11°C° 0 mm 0 m/s 653 mmHg 51%
    06:00 +12°C° 0 mm 1 m/s 653 mmHg 51%
    07:00 +12°C° 0 mm 1 m/s 654 mmHg 50%
    08:00 +16°C° 0 mm 1 m/s 654 mmHg 42%
    09:00 +20°C° 0 mm 2 m/s 655 mmHg 34%
    10:00 +25°C° 0 mm 3 m/s 656 mmHg 25%
    11:00 +27°C° 0 mm 2 m/s 656 mmHg 23%
    12:00 +29°C° 0 mm 2 m/s 655 mmHg 20%
    13:00 +31°C° 0 mm 2 m/s 655 mmHg 17%
    14:00 +30°C° 0 mm 2 m/s 655 mmHg 17%
    15:00 +30°C° 0 mm 1 m/s 654 mmHg 17%
    16:00 +30°C° 0 mm 1 m/s 654 mmHg 16%
    17:00 +27°C° 0 mm 1 m/s 654 mmHg 21%
    18:00 +23°C° 0 mm 1 m/s 653 mmHg 26%
    19:00 +20°C° 0 mm 1 m/s 653 mmHg 31%
    20:00 +19°C° 0 mm 1 m/s 653 mmHg 32%
    21:00 +18°C° 0 mm 1 m/s 653 mmHg 34%
    22:00 +16°C° 0 mm 1 m/s 654 mmHg 36%
    23:00 +15°C° 0 mm 1 m/s 653 mmHg 39%
    Voir plus